Regional Weather Roundup
Issued by NWS

Home | Current Version | Previous Version | Graphics & Text | Print | Product List | Glossary On
Versions: 1 2 3 4 5 6 7 8 9 10 11 12 13 14 15 16 17 18 19 20 21 22 23 24 25 26 27 28 29 30 31 32 33 34 35 36 37 38 39 40 41 42 43 44 45 46 47 48 49 50
000
ASUS45 KCYS 232010
RWRWY

WYOMING REGIONAL WEATHER ROUNDUP
NATIONAL WEATHER SERVICE CHEYENNE WY
200 PM MDT TUE SEP 23 2014

NOTE:  "FAIR" INDICATES FEW OR NO CLOUDS BELOW 12,000 FEET
WITH NO SIGNIFICANT WEATHER AND/OR OBSTRUCTIONS TO VISIBILITY.

WYZ001-232100-
YELLOWSTONE NATIONAL PARK

CITY           SKY/WX    TMP DP  RH WIND       PRES   REMARKS
LK YELLOWSTONE   N/A     57  47  69 VRB5      30.35F
W YELLOWSTONE  NOT AVBL

$$
WYZ002>013-054>058-071-098>099-232100-
NORTHERN WYOMING

CITY           SKY/WX    TMP DP  RH WIND       PRES   REMARKS
JACKSON        SUNNY     64  50  59 SW7       30.26F
CODY           MOSUNNY   77  43  29 S7        30.09F
GREYBULL       SUNNY     78  43  28 SW5       30.04F
WORLAND        SUNNY     79  43  27 VRB5      30.06F
SHERIDAN       MOSUNNY   81  47  30 NW18G24   30.01F
BUFFALO        MOSUNNY   77  44  30 N21       30.07F
GILLETTE       MOSUNNY   79  46  31 NW15G25   30.01S
HULETT         FAIR      79  46  31 MISG      30.01
NEWCASTLE      FAIR      72  46  40 NW8       30.02

$$
WYZ014>020-022>026-101>103-232100-
CENTRAL WYOMING

CITY           SKY/WX    TMP DP  RH WIND       PRES   REMARKS
BIG PINEY      SUNNY     70  40  33 N10       30.27F
PINEDALE       CLEAR     68  37  32 W9G18     30.27F
DUBOIS         FAIR      68  34  28 N13G21    30.24F
LANDER         SUNNY     76  38  25 VRB3      30.14F
RIVERTON       SUNNY     75  42  30 E9        30.15F
CASPER         PTSUNNY   78  38  23 W13G22    30.10F
DOUGLAS        CLOUDY    77  40  26 NW14G23   30.08S

$$
WYZ021-027>030-104>119-232100-
SOUTHERN WYOMING

CITY           SKY/WX    TMP DP  RH WIND       PRES   REMARKS
EVANSTON       MOSUNNY   72  40  31 W10       30.30F
KEMMERER       PTCLDY    66  43  42 W15       30.31S
FORT BRIDGER   MOCLDY    72  43  34 NW13G22   30.32F
ROCK SPRINGS   SUNNY     69  43  38 W15G22    30.26F
DIXON          MOCLDY    68  48  48 W12       30.29F
RAWLINS        MOSUNNY   70  39  32 W20G28    30.23F
SARATOGA       MOCLDY    68  41  37 W14G28    30.26F
LARAMIE        CLOUDY    64  39  39 W20       30.23F
CHEYENNE       MOSUNNY   73  39  29 NW20G35   30.16S
TORRINGTON     MOSUNNY   81  44  27 NW10G17   30.00F
PINE BLUFFS    MOCLDY    73  41  31 NW23G29   30.09F

$$


USA.gov is the U.S. government's official web portal to all federal, state and local government web resources and services.